Lid_Strength_Index
8 12 14 12 11 11 12 14 14 12 10 11 12 11 10 10 11 9 8 8 7 6 4 4 3 3 3 4 5 3 3 3 2 4 3 4 4 4 3 2 2 1 1 2
12 13 10 9 10 11 12 14 14 12 10 11 12 12 10 11 12 13 13 10 8 7 6 5 5 4 3 5 5 4 4 4 2 2 3 2 2 2 1 1 1 1 1 0
13 11 9 10 11 13 14 14 14 14 12 11 12 14 13 12 12 13 12 12 11 10 9 8 5 5 4 5 5 4 4 4 4 4 3 2 2 1 2 1 1 0 -0 0
13 9 10 11 12 12 15 11 11 13 14 17 12 19 16 14 13 14 14 13 12 12 10 9 7 6 7 6 6 4 4 3 4 3 3 3 3 3 2 1 1 1 1 0
14 12 12 12 12 10 13 11 12 12 15 15 15 17 15 14 15 14 14 14 13 12 11 11 9 8 7 6 7 6 5 5 5 4 3 2 2 2 2 3 2 3 3 3
12 10 12 13 10 10 10 11 12 13 15 19 16 16 17 15 14 14 13 13 13 11 11 11 11 9 9 8 8 7 7 7 7 6 6 4 3 4 5 6 5 6 6 3
13 13 11 11 12 10 11 14 19 21 23 21 15 17 16 14 13 14 14 13 12 12 11 11 11 11 10 10 10 9 9 9 8 8 8 8 5 6 7 7 7 7 6 6
16 18 13 11 13 14 13 14 19 23 22 20 15 18 16 13 12 12 12 13 12 12 11 10 11 11 11 10 10 10 10 9 9 8 9 8 8 8 8 7 7 7 7 7
15 16 11 11 11 12 14 16 13 17 20 19 18 17 13 12 13 13 13 12 12 12 12 11 10 11 10 10 10 10 9 9 9 9 9 9 8 8 8 7 7 7 7 6
12 16 12 11 11 11 13 13 17 17 23 23 19 19 18 15 14 13 13 13 13 12 11 11 10 10 10 11 11 10 10 11 10 10 9 9 8 8 8 8 8 8 8 8
11 12 14 12 13 14 13 15 15 15 17 20 21 19 15 14 13 14 13 12 13 12 12 11 10 9 9 10 10 11 11 10 10 10 10 10 10 9 9 9 9 9 8 9
11 13 18 16 11 11 12 14 14 18 19 17 18 18 12 13 12 12 13 12 12 11 11 11 11 10 9 9 10 10 10 10 10 10 10 10 10 10 9 9 9 9 9 9
11 15 23 18 14 12 13 12 13 14 14 17 19 18 12 11 12 12 12 12 11 12 12 11 11 10 10 10 9 9 10 10 9 9 10 10 10 10 9 9 9 9 9 10
10 14 18 20 17 14 15 13 12 13 18 16 16 17 14 12 13 12 12 11 11 11 11 11 11 11 11 10 10 9 9 9 9 9 9 10 10 10 10 9 9 10 10 11
14 21 18 16 15 14 14 13 13 15 14 16 15 15 12 11 13 13 12 11 11 11 11 11 11 11 10 10 10 10 9 9 9 9 9 9 9 9 9 9 9 9 10 10
15 21 19 21 16 16 17 15 15 14 13 14 14 14 10 11 12 13 11 11 11 11 11 10 10 10 10 9 10 9 9 9 9 9 9 9 9 9 9 9 9 9 10 10
17 21 24 25 20 21 23 18 15 15 14 13 15 12 12 13 12 12 11 11 11 11 11 10 10 10 10 10 10 10 10 9 9 8 8 8 8 8 8 9 9 9 9 10
19 22 25 27 26 29 18 16 16 15 15 13 13 13 12 13 12 11 11 12 11 11 10 10 10 10 10 10 10 10 10 10 9 9 8 8 7 8 8 9 9 9 9 10
15 18 24 25 33 23 19 17 16 16 17 14 15 14 14 12 13 12 10 10 10 10 10 9 10 10 10 10 10 11 10 10 10 10 9 9 8 8 9 10 10 10 10 11
15 16 21 26 30 30 19 15 14 15 20 15 14 14 13 13 16 15 12 11 10 10 10 10 10 11 11 11 12 12 11 11 11 11 11 10 10 9 9 10 10 10 10 10
22 22 23 24 29 23 17 15 14 21 18 15 13 13 13 14 13 12 12 11 11 11 11 11 12 12 12 12 12 12 11 11 12 11 11 11 10 10 10 10 10 10 11 11
20 23 21 25 29 25 14 15 17 15 14 13 13 13 13 12 11 11 11 11 11 11 11 11 12 12 12 12 12 11 11 11 12 11 11 13 13 11 10 11 12 11 10 10
21 18 20 18 19 14 14 14 12 12 12 12 12 11 11 11 11 11 11 11 11 11 11 11 11 11 11 11 12 13 11 11 13 15 15 15 14 12 12 11 10 10 10 10
17 15 17 16 14 14 13 12 12 11 11 11 11 11 11 11 11 11 11 11 11 11 11 11 11 11 11 12 13 13 12 14 16 16 15 15 13 13 12 11 10 9 9 10
16 14 16 17 14 14 13 13 11 11 12 12 12 12 11 11 11 11 11 11 11 11 11 12 12 12 12 14 14 16 15 16 15 16 16 15 14 13 13 12 11 11 11 9
14 15 16 17 13 13 13 12 11 11 11 11 11 12 11 11 11 11 11 11 11 11 12 13 13 14 13 16 15 15 18 16 16 15 15 15 14 14 13 12 12 8 8 8